2022-02-01 00:03:10 r, 17.34m,0000000010Hz,0000047198c,0000000.102s, 009.9C,00002191
2022-02-01 00:13:08 r, 17.31m,0000000010Hz,0000045920c,0000000.100s, 009.9C,00002191
2022-02-01 00:23:08 r, 17.35m,0000000010Hz,0000047776c,0000000.104s, 010.3C,00002191
2022-02-01 00:33:08 r, 17.31m,0000000010Hz,0000046163c,0000000.100s, 010.3C,00002191
2022-02-01 00:43:08 r, 17.22m,0000000011Hz,0000042712c,0000000.093s, 010.6C,00002191
2022-02-01 00:53:08 r, 17.25m,0000000011Hz,0000043773c,0000000.095s, 010.9C,00002191
2022-02-01 01:03:08 r, 17.26m,0000000011Hz,0000043885c,0000000.095s, 010.9C,00002191
2022-02-01 01:13:08 r, 17.30m,0000000010Hz,0000045342c,0000000.098s, 011.2C,00002191
2022-02-01 01:23:08 r, 17.33m,0000000010Hz,0000046999c,0000000.102s, 011.2C,00002191
2022-02-01 01:33:09 r, 17.43m,0000000009Hz,0000051705c,0000000.112s, 011.2C,00002191
2022-02-01 01:43:08 r, 17.39m,0000000009Hz,0000049732c,0000000.108s, 010.6C,00002191
2022-02-01 01:53:08 r, 17.41m,0000000009Hz,0000050141c,0000000.109s, 009.9C,00002191
2022-02-01 02:03:10 r, 17.46m,0000000008Hz,0000052399c,0000000.114s, 009.3C,00002191
2022-02-01 02:13:07 r, 17.43m,0000000009Hz,0000051274c,0000000.111s, 008.7C,00002191
2022-02-01 02:23:08 r, 17.41m,0000000009Hz,0000050342c,0000000.109s, 008.3C,00002191
2022-02-01 02:33:10 r, 17.42m,0000000009Hz,0000050959c,0000000.111s, 007.7C,00002191
2022-02-01 02:43:07 r, 17.43m,0000000008Hz,0000051543c,0000000.112s, 007.4C,00002191
2022-02-01 02:53:08 r, 17.40m,0000000009Hz,0000050141c,0000000.109s, 007.0C,00002191
2022-02-01 03:03:08 r, 17.45m,0000000009Hz,0000052695c,0000000.114s, 007.0C,00002191
2022-02-01 03:13:09 r, 17.36m,0000000010Hz,0000048319c,0000000.105s, 007.0C,00002191
2022-02-01 03:23:07 r, 17.30m,0000000010Hz,0000045386c,0000000.098s, 006.7C,00002191
2022-02-01 03:33:09 r, 17.37m,0000000009Hz,0000048627c,0000000.106s, 007.0C,00002191
2022-02-01 03:43:08 r, 17.33m,0000000010Hz,0000047077c,0000000.102s, 006.7C,00002191
2022-02-01 03:53:07 r, 17.25m,0000000010Hz,0000043758c,0000000.095s, 006.7C,00002191
2022-02-01 04:03:10 r, 17.34m,0000000009Hz,0000047246c,0000000.103s, 006.7C,00002191
2022-02-01 04:13:08 r, 17.29m,0000000011Hz,0000045147c,0000000.098s, 006.1C,00002191
2022-02-01 04:23:08 r, 17.20m,0000000011Hz,0000041670c,0000000.090s, 005.4C,00002191
2022-02-01 04:33:10 r, 17.07m,0000000013Hz,0000036949c,0000000.080s, 004.5C,00002191
2022-02-01 04:43:08 r, 16.92m,0000000014Hz,0000032170c,0000000.070s, 003.8C,00002191
2022-02-01 04:53:07 r, 16.95m,0000000014Hz,0000033251c,0000000.072s, 003.2C,00002191
2022-02-01 05:03:08 r, 16.98m,0000000014Hz,0000033931c,0000000.074s, 002.9C,00002191
2022-02-01 05:13:09 r, 17.02m,0000000012Hz,0000035510c,0000000.077s, 002.5C,00002191
2022-02-01 05:23:07 r, 17.10m,0000000012Hz,0000038068c,0000000.083s, 002.2C,00002191
2022-02-01 05:33:07 r, 17.12m,0000000012Hz,0000038902c,0000000.084s, 001.9C,00002191
2022-02-01 05:43:10 r, 17.16m,0000000012Hz,0000040433c,0000000.088s, 001.9C,00002191
2022-02-01 05:53:07 r, 17.30m,0000000010Hz,0000045798c,0000000.099s, 001.6C,00002191
2022-02-01 06:03:07 r, 17.58m,0000000008Hz,0000058761c,0000000.128s, 001.6C,00002191
2022-02-01 06:13:10 r, 17.57m,0000000008Hz,0000058612c,0000000.127s, 001.2C,00002191
2022-02-01 06:23:07 r, 17.63m,0000000007Hz,0000061555c,0000000.134s, 001.2C,00002191
2022-02-01 06:33:10 r, 17.43m,0000000009Hz,0000051374c,0000000.111s, 001.2C,00002191
2022-02-01 06:43:08 r, 17.62m,0000000007Hz,0000061053c,0000000.132s, 001.2C,00002191
2022-02-01 06:53:07 r, 17.49m,0000000008Hz,0000054554c,0000000.118s, 000.9C,00002191
2022-02-01 07:03:10 r, 16.89m,0000000014Hz,0000031261c,0000000.068s, 000.9C,00002191
2022-02-01 07:13:08 r, 15.71m,0000000043Hz,0000010612c,0000000.023s, 000.9C,00002191
2022-02-01 07:23:07 r, 13.98m,0000000217Hz,0000000000c,0000000.000s, 000.6C,00002191
2022-02-01 07:33:08 r, 11.91m,0000001451Hz,0000000000c,0000000.000s, 000.6C,00002191
2022-02-01 07:43:09 r, 10.08m,0000007874Hz,0000000000c,0000000.000s, 000.6C,00002191
2022-02-01 07:53:07 r, 08.49m,0000034243Hz,0000000000c,0000000.000s, 000.6C,00002191
2022-02-01 08:03:07 r, 07.49m,0000085253Hz,0000000000c,0000000.000s, 000.3C,00002191
2022-02-01 08:13:10 r, 06.84m,0000154877Hz,0000000000c,0000000.000s, 000.3C,00002191
2022-02-01 08:23:07 r, 06.14m,0000296180Hz,0000000000c,0000000.000s, 000.3C,00002191
2022-02-01 08:33:07 r, 00.00m,0000552459Hz,0000000000c,0000000.000s, 000.6C,00002191
2022-02-01 08:43:10 r, 00.00m,0000599115Hz,0000000000c,0000000.000s, 000.6C,00002191
2022-02-01 08:53:07 r, 00.00m,0000599047Hz,0000000000c,0000000.000s, 000.6C,00002191
2022-02-01 09:03:10 r, 00.00m,0000599134Hz,0000000000c,0000000.000s, 000.6C,00002191
2022-02-01 09:13:08 r, 00.00m,0000599098Hz,0000000000c,0000000.000s, 000.6C,00002191
2022-02-01 09:23:07 r, 00.00m,0000599060Hz,0000000000c,0000000.000s, 000.9C,00002191
2022-02-01 09:33:10 r, 00.00m,0000599031Hz,0000000000c,0000000.000s, 001.2C,00002191
2022-02-01 09:43:08 r, 00.00m,0000599050Hz,0000000000c,0000000.000s, 001.2C,00002191
2022-02-01 09:53:07 r, 00.00m,0000599126Hz,0000000000c,0000000.000s, 001.6C,00002191
2022-02-01 10:03:08 r, 00.00m,0000598990Hz,0000000000c,0000000.000s, 001.9C,00002191
2022-02-01 10:13:09 r, 00.00m,0000599034Hz,0000000000c,0000000.000s, 002.5C,00002191
2022-02-01 10:23:07 r, 00.00m,0000598933Hz,0000000000c,0000000.000s, 002.9C,00002191
2022-02-01 10:33:09 r, 00.00m,0000598916Hz,0000000000c,0000000.000s, 002.5C,00002191
2022-02-01 10:43:08 r, 00.00m,0000598950Hz,0000000000c,0000000.000s, 002.9C,00002191
2022-02-01 10:53:07 r, 00.00m,0000598779Hz,0000000000c,0000000.000s, 003.8C,00002191
2022-02-01 11:03:08 r, 00.00m,0000598838Hz,0000000000c,0000000.000s, 003.8C,00002191
2022-02-01 11:13:10 r, 00.00m,0000598718Hz,0000000000c,0000000.000s, 004.1C,00002191
2022-02-01 11:23:07 r, 00.00m,0000598729Hz,0000000000c,0000000.000s, 004.1C,00002191
2022-02-01 11:33:07 r, 00.00m,0000598717Hz,0000000000c,0000000.000s, 003.8C,00002191
2022-02-01 11:43:08 r, 00.00m,0000598834Hz,0000000000c,0000000.000s, 003.5C,00002191
2022-02-01 11:53:07 r, 00.00m,0000598667Hz,0000000000c,0000000.000s, 003.8C,00002191
2022-02-01 12:03:07 r, 00.00m,0000598930Hz,0000000000c,0000000.000s, 003.5C,00002191
2022-02-01 12:13:08 r, 00.00m,0000598807Hz,0000000000c,0000000.000s, 003.5C,00002191
2022-02-01 12:23:07 r, 00.00m,0000598829Hz,0000000000c,0000000.000s, 003.5C,00002191
2022-02-01 12:33:07 r, 00.00m,0000598890Hz,0000000000c,0000000.000s, 003.5C,00002191
2022-02-01 12:43:08 r, 00.00m,0000598924Hz,0000000000c,0000000.000s, 002.9C,00002191
2022-02-01 12:53:07 r, 00.00m,0000598774Hz,0000000000c,0000000.000s, 002.9C,00002191
2022-02-01 13:03:07 r, 00.00m,0000598791Hz,0000000000c,0000000.000s, 003.2C,00002191
2022-02-01 13:13:10 r, 00.00m,0000598791Hz,0000000000c,0000000.000s, 003.5C,00002191
2022-02-01 13:23:07 r, 00.00m,0000598816Hz,0000000000c,0000000.000s, 003.8C,00002191
2022-02-01 13:33:07 r, 00.00m,0000598850Hz,0000000000c,0000000.000s, 003.5C,00002191
2022-02-01 13:43:08 r, 00.00m,0000598789Hz,0000000000c,0000000.000s, 003.2C,00002191
2022-02-01 13:53:07 r, 00.00m,0000598904Hz,0000000000c,0000000.000s, 002.9C,00002191
2022-02-01 14:03:07 r, 00.00m,0000598847Hz,0000000000c,0000000.000s, 002.2C,00002191
2022-02-01 14:13:08 r, 00.00m,0000598969Hz,0000000000c,0000000.000s, 001.6C,00002191
2022-02-01 14:23:07 r, 00.00m,0000599040Hz,0000000000c,0000000.000s, 001.2C,00002191
2022-02-01 14:33:07 r, 00.00m,0000599024Hz,0000000000c,0000000.000s, 000.9C,00002191
2022-02-01 14:43:09 r, 00.00m,0000598996Hz,0000000000c,0000000.000s, 000.6C,00002191
2022-02-01 14:53:07 r, 00.00m,0000599029Hz,0000000000c,0000000.000s, 000.3C,00002191
2022-02-01 15:03:07 r, 00.00m,0000599059Hz,0000000000c,0000000.000s, 000.3C,00002191
2022-02-01 15:13:10 r, 00.00m,0000599046Hz,0000000000c,0000000.000s, 000.1C,00002191
2022-02-01 15:23:07 r, 00.00m,0000599023Hz,0000000000c,0000000.000s, 000.3C,00002191
2022-02-01 15:33:07 r, 00.00m,0000599178Hz,0000000000c,0000000.000s,-000.4C,00002191
2022-02-01 15:43:10 r, 00.00m,0000599088Hz,0000000000c,0000000.000s,-000.7C,00002191
2022-02-01 15:53:07 r, 00.00m,0000599106Hz,0000000000c,0000000.000s,-001.0C,00002191
2022-02-01 16:03:08 r, 00.00m,0000599281Hz,0000000000c,0000000.000s,-000.7C,00002191
2022-02-01 16:13:08 r, 00.00m,0000599198Hz,0000000000c,0000000.000s,-001.0C,00002191
2022-02-01 16:23:07 r, 00.00m,0000599155Hz,0000000000c,0000000.000s,-001.3C,00002191
2022-02-01 16:33:07 r, 00.00m,0000599286Hz,0000000000c,0000000.000s,-002.0C,00002191
2022-02-01 16:43:08 r, 00.00m,0000599244Hz,0000000000c,0000000.000s,-002.0C,00002191
2022-02-01 16:53:07 r, 00.00m,0000599222Hz,0000000000c,0000000.000s,-002.0C,00002191
2022-02-01 17:03:07 r, 00.00m,0000599434Hz,0000000000c,0000000.000s,-002.0C,00002191
2022-02-01 17:13:09 r, 06.43m,0000226081Hz,0000000000c,0000000.000s,-002.6C,00002191
2022-02-01 17:23:07 r, 07.31m,0000100511Hz,0000000000c,0000000.000s,-003.0C,00002191
2022-02-01 17:33:07 r, 08.73m,0000027334Hz,0000000000c,0000000.000s,-003.6C,00002191
2022-02-01 17:43:10 r, 10.30m,0000006424Hz,0000000000c,0000000.000s,-004.2C,00002191
2022-02-01 17:53:07 r, 12.38m,0000000944Hz,0000000000c,0000000.000s,-004.2C,00002191
2022-02-01 18:03:07 r, 14.47m,0000000138Hz,0000000000c,0000000.000s,-004.6C,00002191
2022-02-01 18:13:10 r, 16.41m,0000000023Hz,0000020137c,0000000.044s,-004.9C,00002191
2022-02-01 18:23:07 r, 17.96m,0000000006Hz,0000083381c,0000000.181s,-005.2C,00002191
2022-02-01 18:33:07 r, 19.04m,0000000002Hz,0000224744c,0000000.488s,-005.5C,00002191
2022-02-01 18:43:08 r, 19.58m,0000000002Hz,0000370539c,0000000.804s,-005.5C,00002191
2022-02-01 18:53:07 r, 19.75m,0000000001Hz,0000433797c,0000000.941s,-005.5C,00002191
2022-02-01 19:03:07 r, 19.79m,0000000001Hz,0000447274c,0000000.971s,-005.9C,00002191
2022-02-01 19:13:08 r, 19.81m,0000000001Hz,0000455139c,0000000.988s,-005.9C,00002191
2022-02-01 19:23:07 r, 19.82m,0000000001Hz,0000460794c,0000001.000s,-005.9C,00002191
2022-02-01 19:33:07 r, 19.83m,0000000001Hz,0000465548c,0000001.010s,-005.9C,00002191
2022-02-01 19:43:09 r, 19.85m,0000000001Hz,0000471519c,0000001.023s,-006.2C,00002191
2022-02-01 19:53:08 r, 19.86m,0000000000Hz,0000476162c,0000001.033s,-006.2C,00002191
2022-02-01 20:03:07 r, 19.86m,0000000001Hz,0000478894c,0000001.039s,-006.2C,00002191
2022-02-01 20:13:10 r, 19.85m,0000000001Hz,0000473276c,0000001.027s,-006.5C,00002191
2022-02-01 20:23:08 r, 19.85m,0000000001Hz,0000472184c,0000001.025s,-006.5C,00002191
2022-02-01 20:33:07 r, 19.84m,0000000001Hz,0000467488c,0000001.015s,-006.5C,00002191
2022-02-01 20:43:08 r, 19.84m,0000000001Hz,0000468503c,0000001.017s,-006.8C,00002191
2022-02-01 20:53:09 r, 19.84m,0000000001Hz,0000469661c,0000001.019s,-006.8C,00002191
2022-02-01 21:03:07 r, 19.86m,0000000001Hz,0000476958c,0000001.035s,-006.8C,00002191
2022-02-01 21:13:09 r, 19.88m,0000000001Hz,0000487627c,0000001.058s,-006.8C,00002191
2022-02-01 21:23:08 r, 19.89m,0000000001Hz,0000490504c,0000001.064s,-006.8C,00002191
2022-02-01 21:33:07 r, 19.89m,0000000001Hz,0000492372c,0000001.069s,-007.1C,00002191
2022-02-01 21:43:08 r, 19.90m,0000000001Hz,0000494061c,0000001.072s,-007.5C,00002191
2022-02-01 21:53:10 r, 19.90m,0000000001Hz,0000494261c,0000001.073s,-007.5C,00002191
2022-02-01 22:03:07 r, 19.91m,0000000001Hz,0000502101c,0000001.090s,-007.8C,00002191
2022-02-01 22:13:07 r, 19.91m,0000000001Hz,0000503034c,0000001.092s,-008.1C,00002191
2022-02-01 22:23:08 r, 19.91m,0000000001Hz,0000506705c,0000001.100s,-008.4C,00002191
2022-02-01 22:33:07 r, 19.91m,0000000001Hz,0000504989c,0000001.096s,-008.4C,00002191
2022-02-01 22:43:07 r, 19.90m,0000000001Hz,0000500129c,0000001.085s,-008.8C,00002191
2022-02-01 22:53:08 r, 19.90m,0000000001Hz,0000500194c,0000001.085s,-008.8C,00002191
2022-02-01 23:03:07 r, 19.90m,0000000001Hz,0000502847c,0000001.091s,-008.8C,00002191
2022-02-01 23:13:08 r, 19.92m,0000000001Hz,0000505751c,0000001.098s,-009.1C,00002191
2022-02-01 23:23:09 r, 19.92m,0000000001Hz,0000507720c,0000001.102s,-009.1C,00002191
2022-02-01 23:33:07 r, 19.94m,0000000001Hz,0000516447c,0000001.121s,-009.1C,00002191
2022-02-01 23:43:09 r, 19.95m,0000000001Hz,0000523045c,0000001.135s,-009.4C,00002191
2022-02-01 23:53:08 r, 19.96m,0000000001Hz,0000524799c,0000001.139s,-009.4C,00002191
